NOZ6YM ENGM-LOWS

Flight info

Callsign NOZ6YM
Flight time N/A
Altitude 35000
Route OKSAT L996 KELIN DCT SALLO DCT MAREM/N0454F360 DCT VESUB T106 NETES T700 BADIT BADIT2R
Aircraft B738/M-SDE2E3FGHIRWXY/LB1

Departure

Time N/A
Airport Oslo-Gardermoen International Airport (ENGM)

Arrival

Time 2026-05-04 18:15
Airport Salzburg Airport (LOWS)
Time Latitude Longitude Altitude Speed Heading
2026-05-04 17:51 47.45068 12.61775 30730 ft 395 kts 217°
2026-05-04 17:51 47.42880 12.59336 30715 ft 394 kts 217°
2026-05-04 17:52 47.38472 12.54670 30650 ft 392 kts 206°
2026-05-04 17:52 47.35876 12.53478 30633 ft 393 kts 187°
2026-05-04 17:52 47.33152 12.53625 30609 ft 396 kts 169°
2026-05-04 17:53 47.30577 12.55103 30589 ft 401 kts 150°
2026-05-04 17:53 47.28434 12.57768 30564 ft 408 kts 131°
2026-05-04 17:53 47.26955 12.61302 30383 ft 407 kts 114°
2026-05-04 17:53 47.26269 12.65356 29779 ft 413 kts 95°
2026-05-04 17:54 47.26491 12.69586 29095 ft 418 kts 76°
2026-05-04 17:54 47.27599 12.73526 28568 ft 418 kts 60°
2026-05-04 17:54 47.29159 12.77116 28115 ft 415 kts 56°
2026-05-04 17:54 47.30888 12.80500 27682 ft 412 kts 45°
2026-05-04 17:55 47.33144 12.83025 27326 ft 405 kts 25°
2026-05-04 17:55 47.35778 12.84329 26914 ft 398 kts
2026-05-04 17:55 47.38526 12.84534 26506 ft 394 kts 357°
2026-05-04 17:55 47.41259 12.84385 26081 ft 392 kts 355°
2026-05-04 17:56 47.43974 12.84160 25647 ft 390 kts 354°
2026-05-04 17:56 47.46675 12.83918 25273 ft 388 kts 354°
2026-05-04 17:56 47.49359 12.83671 24917 ft 385 kts 354°
2026-05-04 17:56 47.52022 12.83420 24567 ft 382 kts 354°
2026-05-04 17:57 47.54654 12.83069 24234 ft 377 kts 346°
2026-05-04 17:57 47.57074 12.81714 23843 ft 371 kts 326°
2026-05-04 17:57 47.58987 12.79222 23446 ft 365 kts 305°
2026-05-04 17:57 47.60150 12.75943 23022 ft 359 kts 284°
2026-05-04 17:58 47.60433 12.72325 22600 ft 354 kts 264°
2026-05-04 17:58 47.59809 12.68837 22175 ft 351 kts 243°
2026-05-04 17:58 47.58368 12.65954 21749 ft 349 kts 221°
2026-05-04 17:58 47.56317 12.64087 21358 ft 348 kts 200°
2026-05-04 17:59 47.53940 12.63484 20988 ft 348 kts 179°
2026-05-04 17:59 47.51575 12.64235 20625 ft 350 kts 158°
2026-05-04 17:59 47.48164 12.69204 19894 ft 355 kts 115°
2026-05-04 18:00 47.47594 12.72751 19528 ft 357 kts 94°
2026-05-04 18:00 47.47694 12.76423 19177 ft 356 kts 86°
2026-05-04 18:00 47.47955 12.80068 18774 ft 356 kts 85°
2026-05-04 18:00 47.48256 12.83698 18443 ft 354 kts 84°
2026-05-04 18:01 47.48733 12.87252 18083 ft 354 kts 70°
2026-05-04 18:01 47.49988 12.90368 17677 ft 352 kts 48°
2026-05-04 18:01 47.51891 12.92594 17051 ft 351 kts 26°
2026-05-04 18:02 47.56611 12.93522 15869 ft 343 kts 352°
2026-05-04 18:02 47.58964 12.93081 15346 ft 341 kts 350°
2026-05-04 18:02 47.61325 12.92578 14957 ft 340 kts 349°
2026-05-04 18:02 47.63631 12.92075 14476 ft 343 kts 349°
2026-05-04 18:03 47.66011 12.91546 13931 ft 347 kts 349°
2026-05-04 18:03 47.68399 12.91008 13541 ft 345 kts 349°
2026-05-04 18:03 47.70732 12.90477 13149 ft 332 kts 347°
2026-05-04 18:03 47.72903 12.89557 12681 ft 322 kts 336°
2026-05-04 18:04 47.74981 12.88348 12105 ft 320 kts 335°
2026-05-04 18:04 47.77032 12.87101 11592 ft 317 kts 335°
2026-05-04 18:04 47.81019 12.84655 10835 ft 300 kts 334°
2026-05-04 18:05 47.82937 12.83482 10399 ft 297 kts 334°
2026-05-04 18:05 47.84850 12.82309 9931 ft 296 kts 334°
2026-05-04 18:05 47.86746 12.81146 9445 ft 294 kts 334°
2026-05-04 18:05 47.88636 12.79978 8970 ft 292 kts 334°
2026-05-04 18:06 47.92336 12.77643 8056 ft 287 kts 334°
2026-05-04 18:06 47.94173 12.76452 7641 ft 286 kts 335°
2026-05-04 18:06 47.95968 12.75271 7544 ft 277 kts 334°
2026-05-04 18:07 47.97699 12.74122 7434 ft 267 kts 336°
2026-05-04 18:07 47.99486 12.73528 7081 ft 264 kts
2026-05-04 18:07 48.01257 12.74162 6729 ft 261 kts 18°
2026-05-04 18:07 48.03012 12.74771 6354 ft 259 kts 15°
2026-05-04 18:08 48.04574 12.75999 6029 ft 251 kts 46°
2026-05-04 18:08 48.05441 12.78127 5930 ft 234 kts 77°
2026-05-04 18:08 48.05441 12.80500 5638 ft 228 kts 109°
2026-05-04 18:08 48.04630 12.82475 5438 ft 223 kts 131°
2026-05-04 18:09 48.02413 12.85713 5169 ft 227 kts 152°
2026-05-04 18:09 47.99603 12.87477 4935 ft 212 kts 153°
2026-05-04 18:10 47.98302 12.88358 4806 ft 203 kts 155°
2026-05-04 18:10 47.97029 12.89182 4668 ft 196 kts 155°
2026-05-04 18:10 47.95798 12.89966 4579 ft 192 kts 155°
2026-05-04 18:10 47.94550 12.90758 4358 ft 195 kts 155°
2026-05-04 18:11 47.93301 12.91547 4111 ft 193 kts 155°
2026-05-04 18:11 47.92070 12.92327 3859 ft 192 kts 155°
2026-05-04 18:11 47.90841 12.93103 3620 ft 192 kts 155°
2026-05-04 18:11 47.89628 12.93873 3363 ft 185 kts 156°
2026-05-04 18:12 47.88477 12.94602 3124 ft 174 kts 155°
2026-05-04 18:12 47.87420 12.95271 2905 ft 159 kts 155°
2026-05-04 18:12 47.86422 12.95903 2745 ft 154 kts 154°
2026-05-04 18:12 47.85437 12.96529 2521 ft 154 kts 154°
2026-05-04 18:13 47.84442 12.97163 2322 ft 155 kts 155°
2026-05-04 18:13 47.83447 12.97788 2090 ft 156 kts 156°
2026-05-04 18:13 47.81443 12.99056 1706 ft 159 kts 154°
2026-05-04 18:14 47.80402 12.99713 1463 ft 159 kts 156°
2026-05-04 18:14 47.79457 13.00311 1423 ft 128 kts 154°
2026-05-04 18:14 47.78844 13.00702 1421 ft 64 kts 157°
2026-05-04 18:15 47.78554 13.00802 1420 ft 13 kts 244°
2026-05-04 18:15 47.78578 13.00602 1419 ft 9 kts 341°
2026-05-04 18:15 47.78638 13.00567 1419 ft 9 kts 338°
2026-05-04 18:16 47.78696 13.00530 1419 ft 9 kts 336°
2026-05-04 18:16 47.78753 13.00494 1419 ft 9 kts 337°
2026-05-04 18:16 47.78807 13.00459 1419 ft 8 kts 336°
2026-05-04 18:17 47.78912 13.00392 1419 ft 8 kts 337°
2026-05-04 18:17 47.78950 13.00340 1419 ft 8 kts 290°
2026-05-04 18:17 47.78958 13.00187 1421 ft 7 kts 281°
2026-05-04 18:18 47.78990 13.00135 1421 ft 8 kts 335°
2026-05-04 18:18 47.79045 13.00099 1421 ft 9 kts 336°
2026-05-04 18:18 47.79079 13.00041 1421 ft 8 kts 282°
2026-05-04 18:18 47.79090 12.99965 1421 ft 7 kts 282°
2026-05-04 18:19 47.79092 12.99948 1421 ft 0 kts 282°